START_TIME,STEP,MOV.,P11,t_acc.,P23,t_acc.,P27,t_acc.,A4,t_acc.
1980-11-16 06:00:11.700 ,5,0,0.,4.8,0.,4.8,0.,4.8,0.,4.8
1980-11-16 06:00:16.500 ,5,0,0.,4.8,1.,4.8,0.,4.8,0.,4.8
1980-11-16 06:00:21.300 ,5,0,0.,4.8,0.,4.8,0.,4.8,0.,4.8
1980-11-16 06:00:26.100 ,5,0,0.,4.8,0.,4.8,0.,4.8,0.,4.8
1980-11-16 06:00:30.900 ,5,0,0.,4.8,0.,4.8,0.,4.8,0.,4.8
1980-11-16 06:00:35.700 ,6,0,1.,4.8,0.,4.8,0.,4.8,0.,4.8
1980-11-16 06:00:40.500 ,6,0,0.,4.8,0.,4.8,0.,4.8,0.,4.8
1980-11-16 06:00:45.300 ,6,0,0.,4.8,0.,4.8,0.,4.8,0.,4.8
1980-11-16 06:00:50.100 ,6,0,0.,4.8,0.,4.8,0.,4.8,0.,4.8
1980-11-16 06:00:54.900 ,6,0,0.,4.8,0.,4.8,0.,4.8,0.,4.8
1980-11-16 06:00:59.700 ,6,0,0.,4.8,0.,4.8,0.,4.8,0.,4.8
1980-11-16 06:01:04.500 ,6,0,0.,4.8,0.,4.8,0.,4.8,0.,4.8
1980-11-16 06:01:09.300 ,6,0,3.,4.8,0.,4.8,0.,4.8,0.,4.8
1980-11-16 06:01:14.100 ,6,0,0.,4.8,0.,4.8,0.,4.8,0.,4.8
1980-11-16 06:01:18.900 ,6,0,1.,4.8,0.,4.8,0.,4.8,0.,4.8
1980-11-16 06:01:23.700 ,7,0,0.,4.8,0.,4.8,1.,4.8,0.,4.8
1980-11-16 06:01:28.500 ,7,0,0.,4.8,0.,4.8,0.,4.8,0.,4.8
1980-11-16 06:01:33.300 ,7,0,0.,4.8,0.,4.8,0.,4.8,0.,4.8
1980-11-16 06:01:38.100 ,7,0,0.,4.8,0.,4.8,0.,4.8,0.,4.8
1980-11-16 06:01:42.900 ,7,0,1.,4.8,0.,4.8,0.,4.8,0.,4.8
1980-11-16 06:01:47.700 ,7,0,1.,4.8,0.,4.8,0.,4.8,0.,4.8
1980-11-16 06:01:52.500 ,7,0,0.,4.8,0.,4.8,0.,4.8,0.,4.8
1980-11-16 06:01:57.300 ,7,0,1.,4.8,0.,4.8,0.,4.8,0.,4.8
1980-11-16 06:02:02.100 ,7,0,0.,4.8,0.,4.8,0.,4.8,0.,4.8
1980-11-16 06:02:06.900 ,7,0,0.,4.8,0.,4.8,0.,4.8,0.,4.8
1980-11-16 06:02:11.700 ,7,0,0.,4.8,0.,4.8,0.,4.8,0.,4.8
1980-11-16 06:02:16.500 ,7,0,0.,4.8,0.,4.8,0.,4.8,0.,4.8
1980-11-16 06:02:21.300 ,7,0,1.,4.8,0.,4.8,0.,4.8,0.,4.8
1980-11-16 06:02:26.100 ,7,0,1.,4.8,0.,4.8,0.,4.8,0.,4.8
1980-11-16 06:02:30.900 ,7,0,0.,4.8,0.,4.8,1.,4.8,0.,4.8
1980-11-16 06:02:35.700 ,7,0,1.,4.8,0.,4.8,0.,4.8,0.,4.8
1980-11-16 06:02:40.500 ,7,0,0.,4.8,0.,4.8,0.,4.8,0.,4.8
1980-11-16 06:02:45.300 ,7,0,0.,4.8,0.,4.8,0.,4.8,0.,4.8
1980-11-16 06:02:50.100 ,7,0,1.,4.8,0.,4.8,0.,4.8,0.,4.8
1980-11-16 06:02:54.900 ,7,0,0.,4.8,0.,4.8,0.,4.8,0.,4.8
1980-11-16 06:02:59.700 ,6,0,0.,4.8,0.,4.8,0.,4.8,0.,4.8
1980-11-16 06:03:04.500 ,6,0,1.,4.8,0.,4.8,0.,4.8,0.,4.8
1980-11-16 06:03:09.300 ,6,0,0.,4.8,0.,4.8,0.,4.8,0.,4.8
1980-11-16 06:03:14.100 ,6,0,0.,4.8,0.,4.8,0.,4.8,0.,4.8
1980-11-16 06:03:18.900 ,6,0,0.,4.8,0.,4.8,0.,4.8,0.,4.8
1980-11-16 06:03:23.700 ,6,0,0.,4.8,0.,4.8,0.,4.8,0.,4.8
1980-11-16 06:03:28.500 ,6,0,0.,4.8,0.,4.8,0.,4.8,0.,4.8
1980-11-16 06:03:33.300 ,6,0,0.,4.8,1.,4.8,0.,4.8,0.,4.8
1980-11-16 06:03:38.100 ,6,0,0.,4.8,0.,4.8,0.,4.8,0.,4.8
1980-11-16 06:03:42.900 ,6,0,2.,4.8,0.,4.8,0.,4.8,0.,4.8
1980-11-16 06:03:47.700 ,5,0,0.,4.8,0.,4.8,1.,4.8,0.,4.8
1980-11-16 06:03:52.500 ,5,0,0.,4.8,0.,4.8,0.,4.8,0.,4.8
1980-11-16 06:03:57.300 ,5,0,0.,4.8,0.,4.8,0.,4.8,0.,4.8
1980-11-16 06:04:02.100 ,5,0,1.,4.8,0.,4.8,0.,4.8,0.,4.8
1980-11-16 06:04:06.900 ,5,0,1.,4.8,0.,4.8,0.,4.8,0.,4.8
1980-11-16 06:04:11.700 ,5,0,1.,4.8,0.,4.8,0.,4.8,0.,4.8
1980-11-16 06:04:16.500 ,5,0,1.,4.8,0.,4.8,0.,4.8,0.,4.8
1980-11-16 06:04:21.300 ,5,0,0.,4.8,0.,4.8,0.,4.8,0.,4.8
1980-11-16 06:04:26.100 ,5,0,0.,4.8,0.,4.8,0.,4.8,0.,4.8
1980-11-16 06:04:30.900 ,5,0,0.,4.8,0.,4.8,0.,4.8,0.,4.8
1980-11-16 06:04:35.700 ,4,0,0.,4.8,0.,4.8,0.,4.8,0.,4.8
1980-11-16 06:04:40.500 ,4,0,1.,4.8,0.,4.8,0.,4.8,0.,4.8
1980-11-16 06:04:45.300 ,4,0,0.,4.8,0.,4.8,0.,4.8,0.,4.8
1980-11-16 06:04:50.100 ,4,0,0.,4.8,0.,4.8,0.,4.8,0.,4.8
1980-11-16 06:04:54.900 ,4,0,0.,4.8,1.,4.8,0.,4.8,0.,4.8
1980-11-16 06:04:59.700 ,4,0,0.,4.8,0.,4.8,0.,4.8,0.,4.8
1980-11-16 06:05:04.500 ,4,0,0.,4.8,0.,4.8,0.,4.8,0.,4.8
1980-11-16 06:05:09.300 ,4,0,0.,4.8,0.,4.8,0.,4.8,0.,4.8
1980-11-16 06:05:14.100 ,4,0,0.,4.8,0.,4.8,0.,4.8,0.,4.8
1980-11-16 06:05:18.900 ,4,0,0.,4.8,0.,4.8,0.,4.8,0.,4.8
1980-11-16 06:05:23.700 ,3,0,0.,4.8,0.,4.8,0.,4.8,0.,4.8
1980-11-16 06:05:28.500 ,3,0,0.,4.8,0.,4.8,0.,4.8,0.,4.8
1980-11-16 06:05:33.300 ,3,0,1.,4.8,0.,4.8,0.,4.8,0.,4.8
1980-11-16 06:05:38.100 ,3,0,0.,4.8,0.,4.8,0.,4.8,0.,4.8
1980-11-16 06:05:42.900 ,3,0,1.,4.8,0.,4.8,0.,4.8,0.,4.8
1980-11-16 06:05:47.700 ,3,0,0.,4.8,0.,4.8,0.,4.8,0.,4.8
1980-11-16 06:05:52.500 ,3,0,2.,4.8,0.,4.8,0.,4.8,0.,4.8
1980-11-16 06:05:57.300 ,3,0,0.,4.8,0.,4.8,0.,4.8,0.,4.8
1980-11-16 06:06:02.100 ,3,0,1.,4.8,0.,4.8,0.,4.8,0.,4.8
1980-11-16 06:06:06.900 ,3,0,0.,4.8,0.,4.8,0.,4.8,0.,4.8
1980-11-16 06:06:11.700 ,2,0,0.,4.8,0.,4.8,0.,4.8,0.,4.8
1980-11-16 06:06:16.500 ,2,0,1.,4.8,0.,4.8,1.,4.8,0.,4.8
1980-11-16 06:06:21.300 ,2,0,0.,4.8,0.,4.8,0.,4.8,0.,4.8
1980-11-16 06:06:26.100 ,2,0,0.,4.8,0.,4.8,0.,4.8,0.,4.8
1980-11-16 06:06:30.900 ,2,0,0.,4.8,0.,4.8,0.,4.8,0.,4.8
1980-11-16 06:06:35.700 ,2,0,0.,4.8,0.,4.8,0.,4.8,0.,4.8
1980-11-16 06:06:40.500 ,2,0,0.,4.8,0.,4.8,0.,4.8,0.,4.8
1980-11-16 06:06:45.300 ,2,0,0.,4.8,0.,4.8,1.,4.8,0.,4.8
1980-11-16 06:06:50.100 ,2,0,1.,4.8,0.,4.8,0.,4.8,0.,4.8
1980-11-16 06:06:54.900 ,2,0,2.,4.8,0.,4.8,0.,4.8,0.,4.8
1980-11-16 06:06:59.700 ,1,0,0.,4.8,0.,4.8,0.,4.8,0.,4.8
1980-11-16 06:07:04.500 ,1,0,0.,4.8,0.,4.8,0.,4.8,1.,4.8
1980-11-16 06:07:09.300 ,1,0,0.,4.8,0.,4.8,0.,4.8,0.,4.8
1980-11-16 06:07:14.100 ,1,0,0.,4.8,0.,4.8,0.,4.8,0.,4.8
1980-11-16 06:07:18.900 ,1,0,0.,4.8,1.,4.8,0.,4.8,0.,4.8
1980-11-16 06:07:23.700 ,1,0,2.,4.8,0.,4.8,0.,4.8,0.,4.8
1980-11-16 06:07:28.500 ,1,0,0.,4.8,0.,4.8,0.,4.8,0.,4.8
1980-11-16 06:07:33.300 ,1,0,0.,4.8,0.,4.8,1.,4.8,0.,4.8
1980-11-16 06:07:38.100 ,1,0,0.,4.8,1.,4.8,0.,4.8,0.,4.8
1980-11-16 06:07:42.900 ,1,0,1.,4.8,0.,4.8,0.,4.8,0.,4.8
1980-11-16 06:07:47.700 ,0,0,0.,4.8,0.,4.8,0.,4.8,0.,4.8
1980-11-16 06:07:52.500 ,0,0,0.,4.8,0.,4.8,1.,4.8,0.,4.8
1980-11-16 06:07:57.300 ,0,0,2.,4.8,0.,4.8,0.,4.8,0.,4.8
1980-11-16 06:08:02.100 ,0,0,0.,4.8,0.,4.8,0.,4.8,0.,4.8
1980-11-16 06:08:06.900 ,0,0,0.,4.8,0.,4.8,1.,4.8,0.,4.8
1980-11-16 06:08:11.700 ,0,0,1.,4.8,0.,4.8,1.,4.8,0.,4.8
1980-11-16 06:08:16.500 ,0,0,0.,4.8,0.,4.8,0.,4.8,0.,4.8
1980-11-16 06:08:21.300 ,0,0,1.,4.8,0.,4.8,0.,4.8,0.,4.8
1980-11-16 06:08:26.100 ,0,0,0.,4.8,0.,4.8,0.,4.8,0.,4.8
1980-11-16 06:08:30.900 ,0,0,1.,4.8,0.,4.8,0.,4.8,0.,4.8
1980-11-16 06:08:35.700 ,0,0,0.,4.8,0.,4.8,0.,4.8,0.,4.8
1980-11-16 06:08:40.500 ,0,0,0.,4.8,0.,4.8,0.,4.8,0.,4.8
1980-11-16 06:08:45.300 ,0,0,1.,4.8,0.,4.8,0.,4.8,0.,4.8
1980-11-16 06:08:50.100 ,0,0,0.,4.8,0.,4.8,0.,4.8,0.,4.8
1980-11-16 06:08:54.900 ,0,0,0.,4.8,0.,4.8,0.,4.8,0.,4.8
1980-11-16 06:08:59.700 ,0,0,0.,4.8,0.,4.8,0.,4.8,0.,4.8
1980-11-16 06:09:04.500 ,0,0,0.,4.8,0.,4.8,0.,4.8,0.,4.8
1980-11-16 06:09:09.300 ,0,0,2.,4.8,0.,4.8,0.,4.8,0.,4.8
1980-11-16 06:09:14.100 ,0,0,0.,4.8,0.,4.8,0.,4.8,0.,4.8
1980-11-16 06:09:18.900 ,0,0,0.,4.8,0.,4.8,0.,4.8,0.,4.8
1980-11-16 06:09:23.700 ,1,0,1.,4.8,0.,4.8,0.,4.8,0.,4.8
1980-11-16 06:09:28.500 ,1,0,0.,4.8,0.,4.8,0.,4.8,0.,4.8
1980-11-16 06:09:33.300 ,1,0,0.,4.8,0.,4.8,0.,4.8,0.,4.8
1980-11-16 06:09:38.100 ,1,0,1.,4.8,0.,4.8,0.,4.8,0.,4.8
1980-11-16 06:09:42.900 ,1,0,0.,4.8,0.,4.8,0.,4.8,0.,4.8
1980-11-16 06:09:47.700 ,1,0,1.,4.8,0.,4.8,0.,4.8,0.,4.8
1980-11-16 06:09:52.500 ,1,0,2.,4.8,0.,4.8,0.,4.8,0.,4.8
1980-11-16 06:09:57.300 ,1,0,0.,4.8,0.,4.8,1.,4.8,0.,4.8
1980-11-16 06:10:02.100 ,1,0,0.,4.8,0.,4.8,0.,4.8,0.,4.8
1980-11-16 06:10:06.900 ,1,0,0.,4.8,0.,4.8,0.,4.8,0.,4.8
1980-11-16 06:10:11.700 ,2,0,1.,4.8,0.,4.8,1.,4.8,0.,4.8
1980-11-16 06:10:16.500 ,2,0,1.,4.8,0.,4.8,0.,4.8,0.,4.8
1980-11-16 06:10:21.300 ,2,0,0.,4.8,0.,4.8,0.,4.8,0.,4.8
1980-11-16 06:10:26.100 ,2,0,1.,4.8,0.,4.8,0.,4.8,0.,4.8
1980-11-16 06:10:30.900 ,2,0,1.,4.8,0.,4.8,0.,4.8,0.,4.8
1980-11-16 06:10:35.700 ,2,0,0.,4.8,0.,4.8,0.,4.8,0.,4.8
1980-11-16 06:10:40.500 ,2,0,0.,4.8,0.,4.8,0.,4.8,0.,4.8
1980-11-16 06:10:45.300 ,2,0,0.,4.8,0.,4.8,0.,4.8,0.,4.8
1980-11-16 06:10:50.100 ,2,0,0.,4.8,0.,4.8,0.,4.8,0.,4.8
1980-11-16 06:10:54.900 ,2,0,0.,4.8,0.,4.8,0.,4.8,0.,4.8
1980-11-16 06:10:59.700 ,3,0,0.,4.8,0.,4.8,0.,4.8,0.,4.8
1980-11-16 06:11:04.500 ,3,0,0.,4.8,0.,4.8,0.,4.8,0.,4.8
1980-11-16 06:11:09.300 ,3,0,0.,4.8,1.,4.8,0.,4.8,0.,4.8
1980-11-16 06:11:14.100 ,3,0,0.,4.8,0.,4.8,0.,4.8,0.,4.8
1980-11-16 06:11:18.900 ,3,0,0.,4.8,0.,4.8,0.,4.8,0.,4.8
1980-11-16 06:11:23.700 ,3,0,0.,4.8,0.,4.8,0.,4.8,0.,4.8
1980-11-16 06:11:28.500 ,3,0,1.,4.8,0.,4.8,0.,4.8,0.,4.8
1980-11-16 06:11:33.300 ,3,0,0.,4.8,0.,4.8,0.,4.8,0.,4.8
1980-11-16 06:11:38.100 ,3,0,0.,4.8,0.,4.8,0.,4.8,0.,4.8
1980-11-16 06:11:42.900 ,3,0,1.,4.8,0.,4.8,1.,4.8,0.,4.8
1980-11-16 06:11:47.700 ,4,0,1.,4.8,0.,4.8,0.,4.8,0.,4.8
1980-11-16 06:11:52.500 ,4,0,0.,4.8,0.,4.8,0.,4.8,0.,4.8
1980-11-16 06:11:57.300 ,4,0,1.,4.8,0.,4.8,0.,4.8,0.,4.8
1980-11-16 06:12:02.100 ,4,0,0.,4.8,0.,4.8,0.,4.8,0.,4.8
1980-11-16 06:12:06.900 ,4,0,1.,4.8,0.,4.8,0.,4.8,0.,4.8
1980-11-16 06:12:11.700 ,4,0,0.,4.8,0.,4.8,0.,4.8,0.,4.8
1980-11-16 06:12:16.500 ,4,0,0.,4.8,0.,4.8,0.,4.8,0.,4.8
1980-11-16 06:12:21.300 ,4,0,0.,4.8,0.,4.8,0.,4.8,0.,4.8
1980-11-16 06:12:26.100 ,4,0,1.,4.8,0.,4.8,0.,4.8,0.,4.8
1980-11-16 06:12:30.900 ,4,0,0.,4.8,0.,4.8,0.,4.8,0.,4.8
1980-11-16 06:12:35.700 ,5,0,0.,4.8,0.,4.8,0.,4.8,0.,4.8
1980-11-16 06:12:40.500 ,5,0,1.,4.8,0.,4.8,0.,4.8,0.,4.8
1980-11-16 06:12:45.300 ,5,0,0.,4.8,0.,4.8,0.,4.8,0.,4.8
1980-11-16 06:12:50.100 ,5,0,1.,4.8,0.,4.8,0.,4.8,0.,4.8
1980-11-16 06:12:54.900 ,5,0,0.,4.8,0.,4.8,0.,4.8,0.,4.8
1980-11-16 06:12:59.700 ,5,0,0.,4.8,0.,4.8,0.,4.8,0.,4.8
1980-11-16 06:13:04.500 ,5,0,1.,4.8,0.,4.8,0.,4.8,0.,4.8
1980-11-16 06:13:09.300 ,5,0,0.,4.8,0.,4.8,1.,4.8,0.,4.8
1980-11-16 06:13:14.100 ,5,0,0.,4.8,0.,4.8,0.,4.8,0.,4.8
1980-11-16 06:13:18.900 ,5,0,0.,4.8,0.,4.8,0.,4.8,0.,4.8
1980-11-16 06:14:11.700 ,0,0,0.,4.8,0.,4.8,0.,4.8,0.,4.8
1980-11-16 06:14:16.500 ,0,0,1.,4.8,0.,4.8,0.,4.8,0.,4.8
1980-11-16 06:14:21.300 ,0,0,0.,4.8,0.,4.8,1.,4.8,0.,4.8
1980-11-16 06:14:26.100 ,0,0,0.,4.8,0.,4.8,0.,4.8,0.,4.8
1980-11-16 06:14:30.900 ,0,0,1.,4.8,0.,4.8,0.,4.8,0.,4.8
1980-11-16 06:14:35.700 ,0,0,0.,4.8,0.,4.8,0.,4.8,0.,4.8
1980-11-16 06:14:40.500 ,0,0,0.,4.8,0.,4.8,0.,4.8,0.,4.8
1980-11-16 06:14:45.300 ,0,0,0.,4.8,0.,4.8,0.,4.8,0.,4.8
1980-11-16 06:14:50.100 ,0,0,0.,4.8,0.,4.8,0.,4.8,0.,4.8
1980-11-16 06:14:54.900 ,0,0,0.,4.8,0.,4.8,0.,4.8,0.,4.8
1980-11-16 06:14:59.700 ,7,0,0.,4.8,0.,4.8,0.,4.8,0.,4.8
1980-11-16 06:15:04.500 ,7,0,0.,4.8,0.,4.8,0.,4.8,0.,4.8
1980-11-16 06:15:09.300 ,7,0,0.,4.8,0.,4.8,0.,4.8,0.,4.8
1980-11-16 06:15:14.100 ,7,0,0.,4.8,0.,4.8,0.,4.8,0.,4.8
1980-11-16 06:15:18.900 ,7,0,0.,4.8,0.,4.8,0.,4.8,0.,4.8
1980-11-16 06:15:23.700 ,7,0,0.,4.8,1.,4.8,0.,4.8,0.,4.8
1980-11-16 06:15:28.500 ,7,0,1.,4.8,0.,4.8,0.,4.8,0.,4.8
1980-11-16 06:15:33.300 ,7,0,0.,4.8,0.,4.8,0.,4.8,0.,4.8
1980-11-16 06:15:38.100 ,7,0,1.,4.8,0.,4.8,0.,4.8,0.,4.8
1980-11-16 06:15:42.900 ,7,0,0.,4.8,0.,4.8,1.,4.8,0.,4.8
1980-11-16 06:15:47.700 ,6,0,0.,4.8,0.,4.8,0.,4.8,0.,4.8
1980-11-16 06:15:52.500 ,6,0,0.,4.8,0.,4.8,0.,4.8,0.,4.8
1980-11-16 06:15:57.300 ,6,0,2.,4.8,0.,4.8,0.,4.8,0.,4.8
1980-11-16 06:16:02.100 ,6,0,0.,4.8,0.,4.8,0.,4.8,0.,4.8
1980-11-16 06:16:06.900 ,6,0,1.,4.8,0.,4.8,0.,4.8,0.,4.8
1980-11-16 06:16:11.700 ,6,0,1.,4.8,0.,4.8,0.,4.8,0.,4.8
1980-11-16 06:16:16.500 ,6,0,0.,4.8,0.,4.8,0.,4.8,0.,4.8
1980-11-16 06:16:21.300 ,6,0,3.,4.8,0.,4.8,0.,4.8,0.,4.8
1980-11-16 06:16:26.100 ,6,0,0.,4.8,0.,4.8,0.,4.8,1.,4.8
1980-11-16 06:16:30.900 ,6,0,2.,4.8,0.,4.8,0.,4.8,0.,4.8
1980-11-16 06:16:35.700 ,5,0,0.,4.8,0.,4.8,0.,4.8,0.,4.8
1980-11-16 06:16:40.500 ,5,0,0.,4.8,0.,4.8,0.,4.8,0.,4.8
1980-11-16 06:16:45.300 ,5,0,0.,4.8,0.,4.8,0.,4.8,0.,4.8
1980-11-16 06:16:50.100 ,5,0,0.,4.8,0.,4.8,0.,4.8,0.,4.8
1980-11-16 06:16:54.900 ,5,0,0.,4.8,0.,4.8,0.,4.8,0.,4.8
1980-11-16 06:16:59.700 ,5,0,0.,4.8,0.,4.8,0.,4.8,0.,4.8
1980-11-16 06:17:04.500 ,5,0,0.,4.8,0.,4.8,0.,4.8,0.,4.8
1980-11-16 06:17:09.300 ,5,0,0.,4.8,0.,4.8,0.,4.8,0.,4.8
1980-11-16 06:17:14.100 ,5,0,0.,4.8,0.,4.8,0.,4.8,0.,4.8
1980-11-16 06:17:18.900 ,5,0,1.,4.8,0.,4.8,0.,4.8,0.,4.8
1980-11-16 06:17:23.700 ,4,0,0.,4.8,0.,4.8,0.,4.8,0.,4.8
1980-11-16 06:17:28.500 ,4,0,1.,4.8,0.,4.8,0.,4.8,0.,4.8
1980-11-16 06:17:33.300 ,4,0,0.,4.8,0.,4.8,0.,4.8,0.,4.8
1980-11-16 06:17:38.100 ,4,0,0.,4.8,0.,4.8,0.,4.8,0.,4.8
1980-11-16 06:17:42.900 ,4,0,0.,4.8,0.,4.8,0.,4.8,0.,4.8
1980-11-16 06:17:47.700 ,4,0,3.,4.8,0.,4.8,0.,4.8,0.,4.8
1980-11-16 06:17:52.500 ,4,0,1.,4.8,0.,4.8,0.,4.8,0.,4.8
1980-11-16 06:17:57.300 ,4,0,1.,4.8,0.,4.8,1.,4.8,0.,4.8
1980-11-16 06:18:02.100 ,4,0,0.,4.8,1.,4.8,0.,4.8,0.,4.8
1980-11-16 06:18:06.900 ,4,0,0.,4.8,0.,4.8,2.,4.8,0.,4.8
1980-11-16 06:18:11.700 ,3,0,0.,4.8,0.,4.8,0.,4.8,0.,4.8
1980-11-16 06:18:16.500 ,3,0,1.,4.8,0.,4.8,0.,4.8,0.,4.8
1980-11-16 06:18:21.300 ,3,0,1.,4.8,0.,4.8,0.,4.8,0.,4.8
1980-11-16 06:18:26.100 ,3,0,0.,4.8,0.,4.8,0.,4.8,0.,4.8
1980-11-16 06:18:30.900 ,3,0,0.,4.8,0.,4.8,0.,4.8,0.,4.8
1980-11-16 06:18:35.700 ,3,0,0.,4.8,0.,4.8,0.,4.8,0.,4.8
1980-11-16 06:18:40.500 ,3,0,0.,4.8,0.,4.8,0.,4.8,0.,4.8
1980-11-16 06:18:45.300 ,3,0,1.,4.8,1.,4.8,0.,4.8,0.,4.8
1980-11-16 06:18:50.100 ,3,0,0.,4.8,1.,4.8,0.,4.8,0.,4.8
1980-11-16 06:18:54.900 ,3,0,0.,4.8,0.,4.8,0.,4.8,0.,4.8
1980-11-16 06:18:59.700 ,2,0,0.,4.8,0.,4.8,0.,4.8,0.,4.8
1980-11-16 06:19:04.500 ,2,0,0.,4.8,0.,4.8,1.,4.8,0.,4.8
1980-11-16 06:19:09.300 ,2,0,1.,4.8,0.,4.8,0.,4.8,0.,4.8
1980-11-16 06:19:14.100 ,2,0,0.,4.8,0.,4.8,0.,4.8,0.,4.8
1980-11-16 06:19:18.900 ,2,0,0.,4.8,0.,4.8,0.,4.8,0.,4.8
1980-11-16 06:19:23.700 ,2,0,0.,4.8,0.,4.8,1.,4.8,0.,4.8
1980-11-16 06:19:28.500 ,2,0,0.,4.8,0.,4.8,0.,4.8,0.,4.8
1980-11-16 06:19:33.300 ,2,0,0.,4.8,0.,4.8,0.,4.8,0.,4.8
1980-11-16 06:19:38.100 ,2,0,0.,4.8,0.,4.8,0.,4.8,0.,4.8
1980-11-16 06:19:42.900 ,2,0,1.,4.8,0.,4.8,0.,4.8,0.,4.8
1980-11-16 06:19:47.700 ,1,0,0.,4.8,0.,4.8,0.,4.8,0.,4.8
1980-11-16 06:19:52.500 ,1,0,1.,4.8,0.,4.8,0.,4.8,0.,4.8
1980-11-16 06:19:57.300 ,1,0,1.,4.8,0.,4.8,1.,4.8,0.,4.8
1980-11-16 06:20:02.100 ,1,0,0.,4.8,0.,4.8,0.,4.8,0.,4.8
1980-11-16 06:20:06.900 ,1,0,0.,4.8,0.,4.8,0.,4.8,0.,4.8
1980-11-16 06:20:11.700 ,1,0,0.,4.8,1.,4.8,0.,4.8,0.,4.8
1980-11-16 06:20:16.500 ,1,0,0.,4.8,0.,4.8,1.,4.8,0.,4.8
1980-11-16 06:20:21.300 ,1,0,0.,4.8,0.,4.8,0.,4.8,0.,4.8
1980-11-16 06:20:26.100 ,1,0,1.,4.8,0.,4.8,0.,4.8,0.,4.8
1980-11-16 06:20:30.900 ,1,0,0.,4.8,0.,4.8,0.,4.8,0.,4.8
1980-11-16 06:20:35.700 ,0,0,0.,4.8,0.,4.8,0.,4.8,0.,4.8
1980-11-16 06:20:40.500 ,0,0,0.,4.8,0.,4.8,0.,4.8,0.,4.8
1980-11-16 06:20:45.300 ,0,0,0.,4.8,0.,4.8,0.,4.8,0.,4.8
1980-11-16 06:20:50.100 ,0,0,0.,4.8,0.,4.8,0.,4.8,0.,4.8
1980-11-16 06:20:54.900 ,0,0,0.,4.8,0.,4.8,0.,4.8,0.,4.8
1980-11-16 06:20:59.700 ,0,0,0.,4.8,0.,4.8,0.,4.8,0.,4.8
1980-11-16 06:21:04.500 ,0,0,0.,4.8,0.,4.8,0.,4.8,0.,4.8
1980-11-16 06:21:09.300 ,0,0,1.,4.8,0.,4.8,0.,4.8,0.,4.8
1980-11-16 06:21:14.100 ,0,0,0.,4.8,0.,4.8,0.,4.8,0.,4.8
1980-11-16 06:21:18.900 ,0,0,0.,4.8,0.,4.8,1.,4.8,0.,4.8
1980-11-16 06:21:23.700 ,0,0,0.,4.8,0.,4.8,0.,4.8,0.,4.8
1980-11-16 06:21:28.500 ,0,0,1.,4.8,0.,4.8,0.,4.8,0.,4.8
1980-11-16 06:21:33.300 ,0,0,0.,4.8,0.,4.8,0.,4.8,0.,4.8
1980-11-16 06:21:38.100 ,0,0,0.,4.8,0.,4.8,0.,4.8,0.,4.8
1980-11-16 06:21:42.900 ,0,0,0.,4.8,0.,4.8,1.,4.8,0.,4.8
1980-11-16 06:21:47.700 ,0,0,0.,4.8,0.,4.8,1.,4.8,0.,4.8
1980-11-16 06:21:52.500 ,0,0,0.,4.8,0.,4.8,0.,4.8,0.,4.8
1980-11-16 06:21:57.300 ,0,0,0.,4.8,0.,4.8,1.,4.8,0.,4.8
1980-11-16 06:22:02.100 ,0,0,0.,4.8,0.,4.8,0.,4.8,0.,4.8
1980-11-16 06:22:06.900 ,0,0,0.,4.8,0.,4.8,0.,4.8,0.,4.8
1980-11-16 06:22:11.700 ,1,0,2.,4.8,0.,4.8,0.,4.8,0.,4.8
1980-11-16 06:22:16.500 ,1,0,0.,4.8,0.,4.8,0.,4.8,0.,4.8
1980-11-16 06:22:21.300 ,1,0,0.,4.8,0.,4.8,0.,4.8,0.,4.8
1980-11-16 06:22:26.100 ,1,0,0.,4.8,0.,4.8,0.,4.8,0.,4.8
1980-11-16 06:22:30.900 ,1,0,0.,4.8,0.,4.8,0.,4.8,0.,4.8
1980-11-16 06:22:35.700 ,1,0,0.,4.8,0.,4.8,0.,4.8,0.,4.8
1980-11-16 06:22:40.500 ,1,0,0.,4.8,0.,4.8,0.,4.8,0.,4.8
1980-11-16 06:22:45.300 ,1,0,1.,4.8,0.,4.8,0.,4.8,0.,4.8
1980-11-16 06:22:50.100 ,1,0,0.,4.8,0.,4.8,0.,4.8,0.,4.8
1980-11-16 06:22:54.900 ,1,0,0.,4.8,0.,4.8,0.,4.8,0.,4.8
1980-11-16 06:22:59.700 ,2,0,1.,4.8,0.,4.8,0.,4.8,0.,4.8
1980-11-16 06:23:04.500 ,2,0,1.,4.8,0.,4.8,0.,4.8,0.,4.8
1980-11-16 06:23:09.300 ,2,0,0.,4.8,0.,4.8,0.,4.8,0.,4.8
1980-11-16 06:23:14.100 ,2,0,0.,4.8,0.,4.8,0.,4.8,0.,4.8
1980-11-16 06:23:18.900 ,2,0,0.,4.8,0.,4.8,0.,4.8,0.,4.8
1980-11-16 06:23:23.700 ,2,0,1.,4.8,0.,4.8,0.,4.8,0.,4.8
1980-11-16 06:23:28.500 ,2,0,2.,4.8,0.,4.8,0.,4.8,0.,4.8
1980-11-16 06:23:33.300 ,2,0,1.,4.8,0.,4.8,0.,4.8,0.,4.8
1980-11-16 06:23:38.100 ,2,0,0.,4.8,0.,4.8,0.,4.8,0.,4.8
1980-11-16 06:23:42.900 ,2,0,1.,4.8,0.,4.8,0.,4.8,0.,4.8
1980-11-16 06:23:47.700 ,3,0,0.,4.8,0.,4.8,0.,4.8,0.,4.8
1980-11-16 06:23:52.500 ,3,0,0.,4.8,0.,4.8,0.,4.8,0.,4.8
1980-11-16 06:23:57.300 ,3,0,0.,4.8,0.,4.8,0.,4.8,0.,4.8
1980-11-16 06:24:02.100 ,3,0,0.,4.8,0.,4.8,0.,4.8,0.,4.8
1980-11-16 06:24:06.900 ,3,0,0.,4.8,0.,4.8,1.,4.8,0.,4.8
1980-11-16 06:24:11.700 ,3,0,1.,4.8,0.,4.8,0.,4.8,0.,4.8
1980-11-16 06:24:16.500 ,3,0,1.,4.8,0.,4.8,0.,4.8,0.,4.8
1980-11-16 06:24:21.300 ,3,0,0.,4.8,0.,4.8,0.,4.8,0.,4.8
1980-11-16 06:24:26.100 ,3,0,0.,4.8,0.,4.8,0.,4.8,0.,4.8
1980-11-16 06:24:30.900 ,3,0,0.,4.8,0.,4.8,0.,4.8,0.,4.8
1980-11-16 06:24:35.700 ,4,0,0.,4.8,0.,4.8,0.,4.8,0.,4.8
1980-11-16 06:24:40.500 ,4,0,0.,4.8,0.,4.8,0.,4.8,0.,4.8
1980-11-16 06:24:45.300 ,4,0,0.,4.8,0.,4.8,0.,4.8,0.,4.8
1980-11-16 06:24:50.100 ,4,0,0.,4.8,0.,4.8,0.,4.8,0.,4.8
1980-11-16 06:24:54.900 ,4,0,0.,4.8,0.,4.8,0.,4.8,0.,4.8
1980-11-16 06:24:59.700 ,4,0,1.,4.8,0.,4.8,0.,4.8,0.,4.8
1980-11-16 06:25:04.500 ,4,0,0.,4.8,0.,4.8,0.,4.8,0.,4.8
1980-11-16 06:25:09.300 ,4,0,1.,4.8,0.,4.8,0.,4.8,0.,4.8
1980-11-16 06:25:14.100 ,4,0,0.,4.8,0.,4.8,0.,4.8,0.,4.8
1980-11-16 06:25:18.900 ,4,0,1.,4.8,0.,4.8,0.,4.8,0.,4.8
1980-11-16 06:25:23.700 ,5,0,2.,4.8,0.,4.8,0.,4.8,0.,4.8
1980-11-16 06:25:28.500 ,5,0,0.,4.8,0.,4.8,1.,4.8,0.,4.8
1980-11-16 06:25:33.300 ,5,0,0.,4.8,0.,4.8,1.,4.8,0.,4.8
1980-11-16 06:25:38.100 ,5,0,0.,4.8,0.,4.8,0.,4.8,0.,4.8
1980-11-16 06:25:42.900 ,5,0,0.,4.8,0.,4.8,0.,4.8,0.,4.8
1980-11-16 06:25:47.700 ,5,0,0.,4.8,0.,4.8,0.,4.8,0.,4.8
1980-11-16 06:25:52.500 ,5,0,0.,4.8,0.,4.8,0.,4.8,0.,4.8
1980-11-16 06:25:57.300 ,5,0,2.,4.8,0.,4.8,0.,4.8,0.,4.8
1980-11-16 06:26:02.100 ,5,0,0.,4.8,0.,4.8,0.,4.8,0.,4.8
1980-11-16 06:26:06.900 ,5,0,0.,4.8,0.,4.8,0.,4.8,1.,4.8
1980-11-16 06:26:11.700 ,6,0,0.,4.8,0.,4.8,0.,4.8,0.,4.8
1980-11-16 06:26:16.500 ,6,0,1.,4.8,0.,4.8,0.,4.8,0.,4.8
1980-11-16 06:26:21.300 ,6,0,0.,4.8,0.,4.8,0.,4.8,0.,4.8
1980-11-16 06:26:26.100 ,6,0,0.,4.8,0.,4.8,0.,4.8,0.,4.8
1980-11-16 06:26:30.900 ,6,0,0.,4.8,0.,4.8,0.,4.8,0.,4.8
1980-11-16 06:26:35.700 ,6,0,0.,4.8,0.,4.8,0.,4.8,0.,4.8
1980-11-16 06:26:40.500 ,6,0,0.,4.8,0.,4.8,1.,4.8,0.,4.8
1980-11-16 06:26:45.300 ,6,0,0.,4.8,0.,4.8,0.,4.8,0.,4.8
1980-11-16 06:26:50.100 ,6,0,0.,4.8,0.,4.8,0.,4.8,0.,4.8
1980-11-16 06:26:54.900 ,6,0,0.,4.8,0.,4.8,0.,4.8,0.,4.8
1980-11-16 06:26:59.700 ,7,0,0.,4.8,0.,4.8,0.,4.8,0.,4.8
1980-11-16 06:27:04.500 ,7,0,0.,4.8,0.,4.8,0.,4.8,0.,4.8
1980-11-16 06:27:09.300 ,7,0,1.,4.8,0.,4.8,0.,4.8,1.,4.8
1980-11-16 06:27:14.100 ,7,0,4.,4.8,0.,4.8,0.,4.8,0.,4.8
1980-11-16 06:27:18.900 ,7,0,0.,4.8,0.,4.8,0.,4.8,0.,4.8
1980-11-16 06:27:23.700 ,7,0,1.,4.8,1.,4.8,1.,4.8,0.,4.8
1980-11-16 06:27:28.500 ,7,0,0.,4.8,0.,4.8,0.,4.8,0.,4.8
1980-11-16 06:27:33.300 ,7,0,1.,4.8,1.,4.8,0.,4.8,0.,4.8
1980-11-16 06:27:38.100 ,7,0,0.,4.8,0.,4.8,0.,4.8,0.,4.8
1980-11-16 06:27:42.900 ,7,0,0.,4.8,0.,4.8,0.,4.8,0.,4.8
1980-11-16 06:27:47.700 ,7,0,0.,4.8,0.,4.8,0.,4.8,0.,4.8
1980-11-16 06:27:52.500 ,7,0,0.,4.8,0.,4.8,0.,4.8,0.,4.8
1980-11-16 06:27:57.300 ,7,0,0.,4.8,0.,4.8,0.,4.8,0.,4.8
1980-11-16 06:28:02.100 ,7,0,0.,4.8,0.,4.8,0.,4.8,0.,4.8
1980-11-16 06:28:06.900 ,7,0,0.,4.8,0.,4.8,0.,4.8,0.,4.8
1980-11-16 06:28:11.700 ,7,0,0.,4.8,0.,4.8,1.,4.8,0.,4.8
1980-11-16 06:28:16.500 ,7,0,0.,4.8,0.,4.8,0.,4.8,0.,4.8
1980-11-16 06:28:21.300 ,7,0,0.,4.8,0.,4.8,0.,4.8,0.,4.8
1980-11-16 06:28:26.100 ,7,0,0.,4.8,0.,4.8,0.,4.8,0.,4.8
1980-11-16 06:28:30.900 ,7,0,0.,4.8,0.,4.8,0.,4.8,0.,4.8
1980-11-16 06:28:35.700 ,6,0,1.,4.8,0.,4.8,0.,4.8,0.,4.8
1980-11-16 06:28:40.500 ,6,0,0.,4.8,0.,4.8,0.,4.8,0.,4.8
1980-11-16 06:28:45.300 ,6,0,1.,4.8,0.,4.8,0.,4.8,0.,4.8
1980-11-16 06:28:50.100 ,6,0,0.,4.8,0.,4.8,0.,4.8,0.,4.8
1980-11-16 06:28:54.900 ,6,0,0.,4.8,0.,4.8,0.,4.8,0.,4.8
1980-11-16 06:28:59.700 ,6,0,0.,4.8,0.,4.8,0.,4.8,0.,4.8
1980-11-16 06:29:04.500 ,6,0,2.,4.8,0.,4.8,0.,4.8,0.,4.8
1980-11-16 06:29:09.300 ,6,0,0.,4.8,0.,4.8,0.,4.8,0.,4.8
1980-11-16 06:29:14.100 ,6,0,0.,4.8,0.,4.8,0.,4.8,0.,4.8
1980-11-16 06:29:18.900 ,6,0,0.,4.8,0.,4.8,0.,4.8,0.,4.8
1980-11-16 06:29:23.700 ,5,0,0.,4.8,0.,4.8,0.,4.8,0.,4.8
1980-11-16 06:29:28.500 ,5,0,0.,4.8,0.,4.8,0.,4.8,0.,4.8
1980-11-16 06:29:33.300 ,5,0,1.,4.8,0.,4.8,0.,4.8,0.,4.8
1980-11-16 06:29:38.100 ,5,0,0.,4.8,0.,4.8,0.,4.8,0.,4.8
1980-11-16 06:29:42.900 ,5,0,0.,4.8,0.,4.8,0.,4.8,0.,4.8
1980-11-16 06:29:47.700 ,5,0,0.,4.8,0.,4.8,0.,4.8,0.,4.8
1980-11-16 06:29:52.500 ,5,0,0.,4.8,0.,4.8,0.,4.8,0.,4.8
1980-11-16 06:29:57.300 ,5,0,0.,4.8,0.,4.8,0.,4.8,0.,4.8
1980-11-16 06:30:02.100 ,5,0,0.,4.8,0.,4.8,0.,4.8,0.,4.8
1980-11-16 06:30:06.900 ,5,0,0.,4.8,0.,4.8,0.,4.8,0.,4.8
1980-11-16 06:30:11.700 ,4,0,0.,4.8,0.,4.8,1.,4.8,0.,4.8
1980-11-16 06:30:16.500 ,4,0,0.,4.8,0.,4.8,0.,4.8,0.,4.8
1980-11-16 06:30:21.300 ,4,0,1.,4.8,0.,4.8,0.,4.8,0.,4.8
1980-11-16 06:30:26.100 ,4,0,1.,4.8,0.,4.8,0.,4.8,0.,4.8
1980-11-16 06:30:30.900 ,4,0,0.,4.8,0.,4.8,0.,4.8,0.,4.8
1980-11-16 06:30:35.700 ,4,0,0.,4.8,0.,4.8,1.,4.8,0.,4.8
1980-11-16 06:30:40.500 ,4,0,0.,4.8,0.,4.8,1.,4.8,0.,4.8
1980-11-16 06:30:45.300 ,4,0,0.,4.8,0.,4.8,0.,4.8,0.,4.8
1980-11-16 06:30:50.100 ,4,0,0.,4.8,0.,4.8,0.,4.8,0.,4.8
1980-11-16 06:30:54.900 ,4,0,0.,4.8,0.,4.8,0.,4.8,0.,4.8
1980-11-16 06:30:59.700 ,3,0,2.,4.8,0.,4.8,0.,4.8,0.,4.8
1980-11-16 06:31:04.500 ,3,0,0.,4.8,0.,4.8,0.,4.8,0.,4.8
1980-11-16 06:31:09.300 ,3,0,1.,4.8,0.,4.8,0.,4.8,0.,4.8
1980-11-16 06:31:14.100 ,3,0,1.,4.8,0.,4.8,0.,4.8,0.,4.8
1980-11-16 06:31:18.900 ,3,0,1.,4.8,0.,4.8,0.,4.8,0.,4.8
1980-11-16 06:31:23.700 ,3,0,1.,4.8,0.,4.8,0.,4.8,0.,4.8
1980-11-16 06:31:28.500 ,3,0,0.,4.8,0.,4.8,0.,4.8,0.,4.8
1980-11-16 06:31:33.300 ,3,0,0.,4.8,0.,4.8,0.,4.8,0.,4.8
1980-11-16 06:31:38.100 ,3,0,0.,4.8,0.,4.8,1.,4.8,0.,4.8
1980-11-16 06:31:42.900 ,3,0,1.,4.8,0.,4.8,0.,4.8,0.,4.8
1980-11-16 06:31:47.700 ,2,0,0.,4.8,0.,4.8,0.,4.8,0.,4.8
1980-11-16 06:31:52.500 ,2,0,1.,4.8,0.,4.8,1.,4.8,0.,4.8
1980-11-16 06:31:57.300 ,2,0,0.,4.8,0.,4.8,0.,4.8,0.,4.8
1980-11-16 06:32:02.100 ,2,0,0.,4.8,0.,4.8,0.,4.8,0.,4.8
1980-11-16 06:32:06.900 ,2,0,0.,4.8,0.,4.8,0.,4.8,0.,4.8
1980-11-16 06:32:11.700 ,2,0,0.,4.8,0.,4.8,0.,4.8,0.,4.8
1980-11-16 06:32:16.500 ,2,0,1.,4.8,0.,4.8,0.,4.8,0.,4.8
1980-11-16 06:32:21.300 ,2,0,0.,4.8,0.,4.8,0.,4.8,0.,4.8
1980-11-16 06:32:26.100 ,2,0,0.,4.8,0.,4.8,1.,4.8,0.,4.8
1980-11-16 06:32:30.900 ,2,0,1.,4.8,0.,4.8,0.,4.8,0.,4.8
1980-11-16 06:32:35.700 ,1,0,0.,4.8,0.,4.8,0.,4.8,0.,4.8
1980-11-16 06:32:40.500 ,1,0,0.,4.8,0.,4.8,0.,4.8,0.,4.8
1980-11-16 06:32:45.300 ,1,0,1.,4.8,0.,4.8,0.,4.8,0.,4.8
1980-11-16 06:32:50.100 ,1,0,0.,4.8,0.,4.8,0.,4.8,0.,4.8
1980-11-16 06:32:54.900 ,1,0,0.,4.8,0.,4.8,0.,4.8,0.,4.8
1980-11-16 06:32:59.700 ,1,0,0.,4.8,0.,4.8,0.,4.8,0.,4.8
1980-11-16 06:33:04.500 ,1,0,0.,4.8,0.,4.8,0.,4.8,0.,4.8
1980-11-16 06:33:09.300 ,1,0,0.,4.8,0.,4.8,0.,4.8,0.,4.8
1980-11-16 06:33:14.100 ,1,0,0.,4.8,0.,4.8,0.,4.8,0.,4.8
1980-11-16 06:33:18.900 ,1,0,0.,4.8,0.,4.8,0.,4.8,0.,4.8
1980-11-16 06:33:23.700 ,0,0,0.,4.8,0.,4.8,0.,4.8,0.,4.8
1980-11-16 06:33:28.500 ,0,0,1.,4.8,0.,4.8,0.,4.8,0.,4.8
1980-11-16 06:33:33.300 ,0,0,1.,4.8,0.,4.8,0.,4.8,0.,4.8
1980-11-16 06:33:38.100 ,0,0,0.,4.8,0.,4.8,0.,4.8,0.,4.8
1980-11-16 06:33:42.900 ,0,0,0.,4.8,0.,4.8,0.,4.8,0.,4.8
1980-11-16 06:33:47.700 ,0,0,0.,4.8,0.,4.8,0.,4.8,0.,4.8
1980-11-16 06:33:52.500 ,0,0,0.,4.8,0.,4.8,0.,4.8,0.,4.8